Ponca City, OK

7:23 PM CDT on April 24, 2017 (GMT -0500)
Ponca City Municipal

Weather History for KPNC - June, 2013

Change the Weather History Date:

Saturday, June 22, 2013

  Actual Average Record
Temperature  
Mean Temperature 83 °F -  
Max Temperature 91 °F 91 °F 102 °F (1956)
Min Temperature 75 °F 65 °F 54 °F (2001)
Cooling Degree Days 18    
Growing Degree Days 33 (Base 50)    
Moisture  
Dew Point 65 °F    
Average Humidity 54    
Maximum Humidity 74    
Minimum Humidity 37    
Precipitation  
Precipitation 0.00 in - - ()
Sea Level Pressure  
Sea Level Pressure 29.87 in    
Wind  
Wind Speed 13 mph (SSE)    
Max Wind Speed 23 mph    
Max Gust Speed 33 mph    
Visibility 10 miles    
Events      
Averages and records for this station are not official NWS values.
T = Trace of Precipitation, MM = Missing Value Source: NWS Daily Summary

Daily Weather History Graph

Daily Weather History Graph

Search for Another Location

Airport or City:

Trip Planner

Search our weather history database for the weather conditions in past years. The results will help you decide how hot, cold, wet, or windy it might be!

Date:

Astronomy

Jun. 22, 2013 Rise Set
Actual Time 6:10 AM CDT 8:50 PM CDT
Civil Twilight 5:39 AM CDT 9:21 PM CDT
Nautical Twilight 5:01 AM CDT 9:59 PM CDT
Astronomical Twilight 4:18 AM CDT 10:42 PM CDT
Moon 8:08 PM CDT (6/22) 5:22 AM CDT (6/22)
Length of Visible Light 15h 42m
Length of Day
14h 40m
Waxing Gibbous, 99% of the Moon is Illuminated
Jun 22
Waxing Gibbous
Jun 23
Full
Jun 29
Last Quarter
Jul 8
New
Jul 15
First Quarter

Hourly Weather History & Observations

Time (CDT) Temp. Heat Index Dew Point Humidity Pressure Visibility Wind Dir Wind Speed Gust Speed Precip Events Conditions
12:53 AM 81.0 °F 83.8 °F 68.0 °F 65% 29.91 in 10.0 mi SSE 11.5 mph 23.0 mph N/A   Clear
1:53 AM 80.1 °F 82.7 °F 68.0 °F 67% 29.89 in 10.0 mi SSE 11.5 mph 23.0 mph N/A   Clear
2:53 AM 79.0 °F - 66.9 °F 66% 29.89 in 10.0 mi SSE 12.7 mph 20.7 mph N/A   Clear
3:53 AM 78.1 °F - 66.9 °F 68% 29.88 in 10.0 mi SSE 12.7 mph - N/A   Clear
4:53 AM 77.0 °F - 66.9 °F 71% 29.88 in 10.0 mi SSE 15.0 mph - N/A   Clear
5:53 AM 78.1 °F - 66.0 °F 66% 29.90 in 10.0 mi SSE 12.7 mph 21.9 mph N/A   Clear
6:53 AM 75.9 °F - 66.9 °F 74% 29.90 in 10.0 mi SSE 13.8 mph - N/A   Clear
7:53 AM 78.1 °F - 66.9 °F 68% 29.91 in 10.0 mi South 6.9 mph 17.3 mph N/A   Clear
8:53 AM 80.1 °F 82.3 °F 66.9 °F 64% 29.92 in 10.0 mi South 9.2 mph 17.3 mph N/A   Clear
9:53 AM 82.0 °F 84.1 °F 66.0 °F 58% 29.93 in 10.0 mi South 8.1 mph 21.9 mph N/A   Clear
10:53 AM 84.9 °F 86.6 °F 64.9 °F 51% 29.93 in 10.0 mi South 12.7 mph 21.9 mph N/A   Clear
11:53 AM 89.1 °F 90.3 °F 64.0 °F 43% 29.92 in 10.0 mi South 9.2 mph 20.7 mph N/A   Clear
12:53 PM 91.0 °F 91.9 °F 63.0 °F 39% 29.91 in 10.0 mi South 11.5 mph 24.2 mph N/A   Clear
1:53 PM 91.9 °F 92.9 °F 63.0 °F 38% 29.89 in 10.0 mi South 12.7 mph 25.3 mph N/A   Clear
2:53 PM 91.9 °F 93.3 °F 64.0 °F 39% 29.87 in 10.0 mi SSE 20.7 mph 27.6 mph N/A   Clear
3:53 PM 91.9 °F 92.9 °F 63.0 °F 38% 29.84 in 10.0 mi South 15.0 mph 28.8 mph N/A   Clear
4:53 PM 91.9 °F 92.5 °F 62.1 °F 37% 29.82 in 10.0 mi SSE 23.0 mph 33.4 mph N/A   Clear
5:53 PM 91.0 °F 91.9 °F 63.0 °F 39% 29.80 in 10.0 mi SSE 23.0 mph 32.2 mph N/A   Clear
6:53 PM 89.1 °F 89.3 °F 62.1 °F 40% 29.80 in 10.0 mi South 17.3 mph 33.4 mph N/A   Clear
7:53 PM 87.1 °F 88.3 °F 64.0 °F 46% 29.81 in 10.0 mi South 10.4 mph 20.7 mph N/A   Clear
8:53 PM 84.0 °F 85.8 °F 64.9 °F 53% 29.82 in 10.0 mi SSE 16.1 mph 21.9 mph N/A   Clear
9:53 PM 82.0 °F 84.1 °F 66.0 °F 58% 29.82 in 10.0 mi SSE 13.8 mph - N/A   Clear
10:53 PM 82.0 °F 84.1 °F 66.0 °F 58% 29.84 in 10.0 mi SSE 18.4 mph 25.3 mph N/A   Clear
11:53 PM 81.0 °F 83.3 °F 66.9 °F 62% 29.83 in 10.0 mi SSE 19.6 mph 25.3 mph N/A   Clear